Regional Weather Roundup
Issued by NWS Wakefield, VA

Home | Current Version | Previous Version | Text Only | Print | Product List | Glossary Off
Versions: 1 2 3 4 5 6 7 8 9 10 11 12 13 14 15 16 17 18 19 20 21 22 23 24 25 26 27

000
ASUS41 KAKQ 242115
RWRAKQ

REGIONAL WEATHER ROUNDUP
NATIONAL WEATHER SERVICE WAKEFIELD VA
500 PM EDT SAT SEP 24 2016

Note: "fair" indicates few or no clouds below 12,000 feet with no
significant weather and/or obstructions to visibility. * = Denotes
station may not report precipitation (e.g., rain,snow,etc.),
thunder or fog.

VAZ042-051-052>054-056-242200-
NORTHERN VIRGINIA

CITY           SKY/WX    TMP DP  RH WIND       PRES   REMARKS
WASH NATIONAL  PTSUNNY   74  63  68 NE10      30.08S
DULLES         PTSUNNY   73  61  65 E10       30.07F
FORT BELVOIR   PTSUNNY   73  63  70 VRB2      30.07S
QUANTICO         N/A     74  64  71 NE10      30.08R
FREDERICKSBRG* MOSUNNY   74  67  78 NE8       30.06R
STAFFORD*      MOSUNNY   74  66  74 E9        30.11R
WARRENTON      CLOUDY    76  59  55 NE6       30.06S
CULPEPER*      CLOUDY    77  65  65 NE3       30.06S
MANASSAS*      PTSUNNY   75  64  69 E6        30.07S
LEESBURG*      MOSUNNY   75  61  60 NW7       30.09S
WINCHESTER     CLOUDY    72  57  60 E5        30.09F
FRONT ROYAL*   FAIR      73  61  64 NE9       30.08S
LURAY*         FAIR      75  63  64 N14       30.07R
$$

VAZ048-049-060>072-079>083-242200-
CENTRAL AND SOUTH CENTRAL VIRGINIA

CITY           SKY/WX    TMP DP  RH WIND       PRES   REMARKS
RICHMOND       PTSUNNY   79  67  66 NE15      30.03R
CHESTERFIELD*  FAIR      84  61  45 NE8       30.03S
PETERSBURG*    SUNNY     88  66  48 E7        30.01S
HANOVER        MOSUNNY   78  66  66 VRB5      30.06R
TAPPAHANNOCK*  CLOUDY    74  63  68 N8        30.07S
QUINTON*       MOCLDY    79  68  69 NE6       30.03R
CHARLOTTSVILLE SUNNY     85  67  54 SE7       30.04S
GORDONSVILLE*  FAIR      82  70  65 NE7       30.03S
ORANGE*          N/A     81  64  57 NE6       30.07R
LOUISA*        PTSUNNY   82  73  74 E3        30.04S
BUMPASS*       FAIR      78  69  74 E7        30.04S
FARMVILLE*     PTSUNNY   86  71  60 NE7       30.00S
CREWE*         MOCLDY    84  72  67 CALM      30.01R
FORT PICKETT*  FAIR      88  62  42 SE6       30.01S
CHASE CITY*    FAIR      89  60  37 CALM      30.01S
CLARKSVILLE*   FAIR      88  63  42 CALM      30.01S
SOUTH HILL*    SUNNY     87  67  50 CALM      30.07S
LAWRENCEVILLE* FAIR      88  66  47 CALM      30.00F
EMPORIA*       SUNNY     88  66  48 N5        30.01F
$$

VAZ088>098-242200-
SOUTHEAST VIRGINIA

CITY           SKY/WX    TMP DP  RH WIND       PRES   REMARKS
NORFOLK        CLOUDY    76  70  82 NE13      30.03R
VIRGINIA BEACH PTSUNNY   76  68  76 NE9       30.02R
NORFOLK NAVAL  PTSUNNY   78  71  79 NE14      30.05R
WEST POINT*    PTSUNNY   76  65  69 N9        30.06R
SALUDA*        CLOUDY    73  68  86 N8        30.05S
NEWPORT NEWS   SUNNY     79  69  71 NE10      30.03R
LANGLEY AFB    SUNNY     76  69  79 NE20      30.03R
FORT EUSTIS    MOSUNNY   83  71  67 E9        30.01R
WILLIAMSBURG*  SUNNY     84  72  65 NE3       30.04R
HR EXEC AP*    FAIR      81  72  74 NE10G16   30.04R
FRANKLIN*      SUNNY     85  72  65 E10       30.01R
US460-WAKEFLD  SUNNY     86  66  51 VRB5      30.01R
$$

VAZ020-022-025-037-045-242200-
WEST CENTRAL AND SOUTHWEST VIRGINIA

CITY           SKY/WX    TMP DP  RH WIND       PRES   REMARKS
STAUNTON*      CLOUDY    82  65  57 SE3       30.07S
WAYNESBORO*    FAIR      81  65  58 E8        30.07S
HOT SPRINGS VA CLOUDY    78  54  44 NW9       30.20S
LYNCHBURG      CLOUDY    87  62  43 SW3       30.04S
DANVILLE       SUNNY     90  61  37 NW3       30.02F
SOUTH BOSTON*  FAIR      90  60  36 CALM      30.01S
MARTINSVILLE   MOSUNNY   91  57  31 CALM      30.06S
ROANOKE        PTSUNNY   88  60  38 W8        30.06F
BLACKSBURG     PTSUNNY   84  62  47 NW6       30.15S
DUBLIN*        PTSUNNY   84  60  44 NW7       30.13F
MARION*        SUNNY     83  60  45 CALM      30.17F
HILLSVILLE*    MOSUNNY   83  56  38 NW9       30.14S
RICHLANDS*     FAIR      79  63  56 N5        30.17F
WISE*          MOSUNNY   81  50  34 N7        30.19S
ABINGDON*      MOSUNNY   86  58  39 NW9       30.13F
$$

MDZ021>025-VAZ099-100-242200-
SOUTHERN MARYLAND AND THE DELMARVA PENINSULA

CITY           SKY/WX    TMP DP  RH WIND       PRES   REMARKS
PATUXENT RIVER CLOUDY    71  63  75 NE7       30.06F
BAY BRIDGE APT CLOUDY    68  61  77 MISG      30.08S
LEONARDTOWN    CLOUDY    70  63  78 NE3       30.08F
DOVER          CLOUDY    66  65  99 NE5       30.08S
GEORGETOWN     CLOUDY    65  62  90 N5        30.09S
EASTON         PTSUNNY   68  61  77 E7        30.12F
CAMBRIDGE      CLOUDY    68  61  77 NE8       30.07S
SALISBURY      CLOUDY    66  63  90 N8        30.08R
OCEAN CITY     CLOUDY    68  64  87 N10       30.07R
WALLOPS ISLAND LGT RAIN  69  67  93 N7        30.07R
ACCOMACK*      CLOUDY    74  65  74 N10G17    30.04R
$$

NCZ012>017-030>032-242200-
NORTH CENTRAL AND EASTERN NORTH CAROLINA

CITY           SKY/WX    TMP DP  RH WIND       PRES   REMARKS
ROANOKE RAPIDS FAIR      88  70  55 CALM      30.00S
RALEIGH        MOSUNNY   89  65  44 NW3       30.02S
ELIZABETH CITY SUNNY     83  71  67 NE13      30.01R
AHOSKIE*       SUNNY     85  69  58 N3        30.00S
EDENTON*       MOSUNNY   88  67  49 SW6       30.00S
CURRITUCK*     MOSUNNY   80  73  78 NE9       30.02R
KILL DEVIL HLS NOT AVBL
MANTEO         SUNNY     82  67  61 E5        30.01R
CAPE HATTERAS  SUNNY     83  69  62 NE5       30.01S
TARBORO*       FAIR      89  67  49 CALM      30.01S
GOLDSBORO      SUNNY     89  62  40 N6        29.99S
WASHINGTON     SUNNY     86  69  56 NW3       30.01R
GREENVILLE     SUNNY     88  66  48 N5        30.02F
NEW BERN       SUNNY     86  66  51 N7        30.02R
WILMINGTON     SUNNY     88  65  46 VRB3      30.00S
$$

VAZ048-242200-
ELSEWHERE

CITY           SKY/WX    TMP DP  RH WIND       PRES   REMARKS
HARRISBURG PA  SUNNY     74  40  29 N9        30.08S
BALTIMORE      PTSUNNY   72  58  61 N8        30.09S
ANNAPOLIS      CLOUDY    70  61  73 NE8       30.08S
ANDREWS AFB    PTSUNNY   71  61  71 NE8       30.07S
PHILADELPHIA   PTSUNNY   72  54  53 CALM      30.08F
HENDERSON NC   SUNNY     86  59  40 CALM      30.02S
GREENSBORO     MOSUNNY   91  62  37 NE7       30.04S
ROCKY MOUNT    MOSUNNY   88  66  48 W3        30.00F
$$

VAZ100-242200-
MARINE

STATION/POSITION TIME  TEMP    WIND        PRES    WAVE   SWELL
                       AIR SEA DIR/SP/G            HT/PER HT/PER
                 (UTC) (F)     (DEG/KT/KT) (MB)    (FT/S) (FT/S)
BRANDYWINE LGT   2000   64      30/ 13/ 18   N/A
CAPE MAY NJ      2000   65 74   10/  2/  5 1018.2S
LEWES DE         2000   66 73   40/ 11/ 13 1018.5R
OCEAN-CITY-INLET 2000   68 74   30/ 10/ 16 1018.3R
WACHAPREAGUE VA  2000   72 78   50/ 18/ 21 1017.0R
THOMAS POINT MD  2100   69 76   60/  8/ 10 1020.0R
GOOSES REEF MD   2000   72 77   50/ 10/ 14 1018.9S   1/ 3
COVE POINT MD    2000   70      30/ 10/ 12 1018.8S
SOLOMONS ISLAND  2000   71 78   20/  7/  9   N/A
BISHOPS HEAD MD  2000   69 76   30/ 11/ 14 1018.5R
PINEY POINT MD   2000           40/ 10/ 12   N/A
POTOMAC MD       2000   71 77   20/ 12/ 16 1017.4R   1
CAMBRIDGE MD     2000   70 76   40/ 11/ 13 1017.6S
LEWISETTA VA     2000   71 77   30/  9/ 13 1017.9R
RAPPAHANNOCK LGT 2000          360/ 18/ 19 1017.5R
STINGRAY PT      2000   74 77  330/ 14/ 17 1017.7R   2/ 3
YORK RVR RNG VA  2000   76      40/ 13/ 14 1016.3S
YORKTOWN VA      2000   77 78   60/ 14/ 15 1016.4R
JAMESTOWN VA     2000   83 79   40/  6/ 12   N/A     0
DOMINION TERM VA 2000   81      30/  3/  7 1016.4F
KIPTOPEKE VA     2000      78   70/  9/ 12   N/A
CHES BAY BRIDGE  2000   75 77   30/ 14/ 16 1016.4F
CAPE HENRY VA    2000   74      40/ 14/ 16   N/A
WILLOUBY STN VA  2000   76      30/ 17/ 19   N/A
CAPE HENRY BUOY  2012      77                N/A     4/11   2/11
1ST LANDING BUOY 2000   76 77   70/ 14/ 16 1016.3S   2/ 4
CAPE CHARLES BUO 2026      77                N/A     4/10   2/11
OFFSHORE WE BUOY 2021      76                N/A     5/10   2/11
64NM E OF VA BCH 2050   74 76   10/ 16/ 17 1015.7R   4/11   3/11
DUCK PIER NC     2000   80 79   40/  7/  9 1015.6R
44056 DUCK FRF   2011      78                N/A     3/11   2/11
OREGON INLET NC  2000   80 80   30/  6/  8 1015.9F
HATTERAS NC      2000   81 82   10/  6/  7 1015.9F
DIAMOND SHLS NC  2050   80 81   20/ 10/ 10 1015.9S   5/11   5/11
CAPE LOOKOUT NC  2100   80      60/  9/ 11 1015.8R
$$




USA.gov is the U.S. government's official web portal to all federal, state and local government web resources and services.